Regional Weather Roundup
Issued by NWS

Home | Current Version | Previous Version | Text Only | Print | Product List | Glossary On
Versions: 1 2 3 4 5 6 7 8 9 10 11 12 13 14 15 16 17 18 19 20 21 22 23 24 25 26 27 28 29 30 31 32 33 34 35 36 37 38 39 40 41 42 43 44 45 46 47 48 49 50
000
ASUS43 KMPX 210510
RWRMN
WEATHER ROUNDUP FOR MINNESOTA
NATIONAL WEATHER SERVICE TWIN CITIES/CHANHASSEN MN
1200 AM CDT FRI JUL 21 2017


NOTE: "FAIR" INDICATES FEW OR NO CLOUDS BELOW 12,000 FEET WITH NO
SIGNIFICANT WEATHER AND/OR OBSTRUCTIONS TO VISIBILITY. N/A MEANS
CURRENT SKY AND/OR WEATHER CONDITIONS ARE NOT AVAILABLE.

MNZ060>063-068>070-210600-
   Twin Cities Metro

CITY           SKY/WX    TMP DP  RH WIND       PRES   REMARKS
TWIN CITIES    MOCLDY    76  68  76 CALM      29.95S
ST PAUL        MOCLDY    70  68  93 CALM      29.95F
CRYSTAL        CLOUDY    69  63  81 CALM      29.93F
BLAINE         MOCLDY    70  68  94 CALM      29.95F
LAKEVILLE      PTCLDY    66  66 100 CALM      29.96R FOG
EDEN PRAIRIE   PTCLDY    72  67  84 SE3       29.94S
SOUTH ST PAUL  PTCLDY    72  70  92 CALM      29.95S
LAKE ELMO      FAIR      68  66  94 CALM      29.97F
$$
MNZ001>005-007-008-013>017-022>024-027-028-210600-
   Northwest Minnesota

CITY           SKY/WX    TMP DP  RH WIND       PRES   REMARKS
BEMIDJI        CLEAR     65  59  81 E5        29.97F
HALLOCK        CLOUDY    68  63  83 E8        29.90F
ROSEAU         CLOUDY    66  61  82 CALM      29.95F
WARROAD        CLOUDY    64  61  88 CALM      29.96S
CROOKSTON      CLOUDY    72  61  68 E9        29.90F
FOSSTON        MOCLDY    64  57  77 CALM      29.95F
DETROIT LAKES  PTCLDY    72  68  88 SE6       29.95F
MOORHEAD       CLOUDY    72  66  83 E3        29.90F
PARK RAPIDS      N/A     73  62  68 CALM      29.96F
MAHNOMEN       FAIR      67  64  90 E6        29.94F
$$
MNZ006-009>011-018-025>026-210600-
   North Central Minnesota

CITY           SKY/WX    TMP DP  RH WIND       PRES   REMARKS
BAUDETTE       MOCLDY    61  58  90 CALM      29.97R
FLAG ISLAND    PTCLDY    66  64  94 CALM      29.95S FOG
INTL FALLS     PTCLDY    54  52  93 CALM      29.97S
WASKISH        MOCLDY    63  57  82 NE3       29.96F
BIG FORK       CLEAR     59  57  94 CALM      29.98F FOG
LONGVILLE      CLOUDY    64  63  94 CALM      29.97F FOG
GRAND RAPIDS   PTCLDY    63  61  93 CALM      30.01R
CRANE LAKE     PTCLDY    55  54  94 CALM      30.00R
ORR            CLEAR     57  55  94 CALM      29.97R
COOK           CLEAR     61  59  94 CALM      29.99R
WALKER         FAIR      64  62  94 CALM      29.97F
$$
MNZ012-019>021-037-210600-
   Northeast Minnesota

CITY           SKY/WX    TMP DP  RH WIND       PRES   REMARKS
DULUTH         CLEAR     67  60  78 NW3       29.98S
ELY            CLEAR     57  57 100 CALM      29.99S
HIBBING        CLEAR     58  58 100 CALM      29.98S
EVELETH        CLEAR     59  55  86 CALM      30.00S
DULUTH HARBOR  PTCLDY    72  66  83 S5        29.95S
TWO HARBORS    CLEAR     70  61  73 NW3       29.95S
GRAND MARAIS     N/A     61  52  72 CALM      29.93S
G MARAIS ARPRT CLEAR     55  52  88 CALM      30.00S
$$
MNZ029>031-032-039>041-046>048-054>057-064-210600-
   West Central Minnesota

CITY           SKY/WX    TMP DP  RH WIND       PRES   REMARKS
FERGUS FALLS   CLOUDY    73  66  78 E5        29.93F
WHEATON        CLOUDY    66  64  94 SE7       29.96S
MORRIS         CLOUDY    70  66  88 SE5       29.96S
ALEXANDRIA     CLOUDY    72  67  84 SE7       29.98S
ELBOW LAKE     FAIR      72  69  90 SE5       29.96F
WADENA         CLOUDY    64  64 100 CALM      29.96F
GLENWOOD       CLOUDY    70  66  88 CALM      29.98S
APPLETON       CLOUDY    70  64  83 E5        29.95S
BENSON         MOCLDY    68  66  94 CALM      29.98S FOG
ORTONVILLE     MOCLDY    72  66  83 E6        29.95F
MADISON        MOCLDY    70  70 100 CALM      29.94F
WILLMAR        FAIR      70  68  94 CALM      29.98S
$$
MNZ033>034-036-042>043-049>051-058-059-210600-
   Central Minnesota

CITY           SKY/WX    TMP DP  RH WIND       PRES   REMARKS
ST CLOUD       PTCLDY    64  64 100 NE5       29.96F
SAUK CENTRE    FAIR      68  66  93 CALM      29.98R
PAYNESVILLE    CLOUDY    67  66  97 CALM      29.97S FOG
AITKIN         MOCLDY    63  61  94 CALM      29.97S
PINE RIVER     CLOUDY    64  64 100 CALM      30.01S
BRAINERD       PTCLDY    66  65  96 CALM      29.98S FOG
STAPLES        MOCLDY    66  66 100 CALM      29.97S
LONG PRAIRIE   FAIR      68  64  88 CALM      29.98S
LITTLE FALLS   CLOUDY    64  64 100 CALM      29.98S FOG
LITCHFIELD     CLOUDY    72  70  94 CALM      29.96F
BUFFALO        CLOUDY    68  65  89 CALM      29.96F
MAPLE LAKE     MOCLDY    68  67  97 CALM      29.97S
HUTCHINSON     CLOUDY    66  66 100 S3        29.97F FOG
$$
MNZ037-044-045-052-053-210600-
   East Central Minnesota

CITY           SKY/WX    TMP DP  RH WIND       PRES   REMARKS
PRINCETON      CLOUDY    66  64  94 CALM      29.96F FOG
MORA             N/A     64  64 100 CALM      29.99S FOG
CAMBRIDGE      CLOUDY    68  64  88 CALM      29.95F FOG
RUSH CITY      PTCLDY    65  64  94 CALM      29.98S FOG
MOOSE LAKE       N/A     63  61  94 CALM      29.97R FOG
HINCKLEY       FAIR      64  64 100 CALM      29.98S
CLOQUET        PTCLDY    64  61  88 CALM      29.98S
MCGREGOR       MOCLDY    66  63  88 CALM      29.99S
$$
MNZ071>073-080-081-089-090-097-098-210600-
   Southwest Minnesota

CITY           SKY/WX    TMP DP  RH WIND       PRES   REMARKS
MONTEVIDEO     MOCLDY    68  66  94 S5        29.95F
GRANITE FALLS  CLOUDY    72  69  92 E5        29.96F
CANBY          PTCLDY    67  65  93 CALM      29.96F
MARSHALL       CLEAR     72  69  90 SE6       29.95F
REDWOOD FALLS  CLEAR     71  68  90 E6        29.95S
OLIVIA         PTCLDY    70  66  88 CALM      29.96F
PIPESTONE      CLEAR     73  70  88 SE6       29.96F
WINDOM         CLEAR     72  68  88 CALM      29.97S
WORTHINGTON    CLEAR     71  70  96 E5        29.97F
JACKSON        CLEAR     72  72 100 CALM      29.97S FOG
TRACY          CLEAR     73  71  95 S3        29.96F
SLAYTON        CLEAR     71  68  91 E5        29.98F
$$
MNZ065>067-074>077-082>085-091>093-210600-
   South Central Minnesota

CITY           SKY/WX    TMP DP  RH WIND       PRES   REMARKS
MANKATO        CLEAR     71  69  93 E5        29.97S
NEW ULM        CLEAR     72  70  94 NE3       29.96S
ST JAMES       CLEAR     70  70 100 E3        29.97R
FAIRMONT       CLOUDY    73  71  93 E6        29.97R
GLENCOE        CLOUDY    68  68 100 S3        29.96S
FARIBAULT      CLEAR     66  66 100 CALM      29.98R FOG
OWATONNA       PTCLDY    70  68  94 SE5       29.98R
WASECA         CLEAR     68  64  88 SE3       29.99R
ALBERT LEA     CLOUDY    73  70  88 SE6       29.98S
$$
MNZ078>079-086>088-094>096-210600-
   Southeast Minnesota

CITY           SKY/WX    TMP DP  RH WIND       PRES   REMARKS
ROCHESTER      CLOUDY    67  67 100 S8        29.99S FOG
RED WING       PTCLDY    66  64  94 CALM      29.94S
STANTON        CLEAR     67  65  93 CALM      29.96R
DODGE CENTER   CLOUDY    68  66  94 SE6       29.99R
WINONA         CLEAR     70  68  94 CALM      29.96S
AUSTIN         CLOUDY    70  66  88 CALM      29.98S
PRESTON        FOG       67  66  94 S5        30.01R VSB 1/4
$$
ABBREVIATIONS USED IN REMARKS
   TC - TEMPERATURES IN CELSIUS
  WCI - WIND CHILL INDEX
   HX - HEAT INDEX
  VSB - VISIBILITY
$$




USA.gov is the U.S. government's official web portal to all federal, state and local government web resources and services.